Change the Weather History Date:

Sunday, December 30, 2012

  Actual Average Record
Temperature  
Mean Temperature 42 °F -  
Max Temperature 51 °F 59 °F 77 °F (1996)
Min Temperature 32 °F 40 °F 28 °F (2000)
Degree Days  
Heating Degree Days 24    
Moisture  
Dew Point 28 °F    
Average Humidity 66    
Maximum Humidity 90    
Minimum Humidity 39    
Precipitation  
Precipitation 0.00 in - - ()
Sea Level Pressure  
Sea Level Pressure 30.37 in    
Wind  
Wind Speed 10 mph (NNW)    
Max Wind Speed 20 mph    
Max Gust Speed 25 mph    
Visibility 10 miles    
Events      
Averages and records for this station are not official NWS values.
T = Trace of Precipitation, MM = Missing Value Source: NWS Daily Summary

Daily Weather History Graph

Daily Weather History Graph

Search for Another Location

Airport or City:

Trip Planner

Search our weather history database for the weather conditions in past years. The results will help you decide how hot, cold, wet, or windy it might be!

Date:

Astronomy

Dec. 30, 2012 Rise Set
Actual Time 7:30 AM EST 5:40 PM EST
Civil Twilight 7:03 AM EST 6:07 PM EST
Nautical Twilight 6:33 AM EST 6:37 PM EST
Astronomical Twilight 6:04 AM EST 7:07 PM EST
Moon 8:00 PM EST (12/30) 8:47 AM EST (12/30)
Length of Visible Light 11h 03m
Length of Day
10h 10m
Waning Gibbous, 95% of the Moon is Illuminated
Dec 30
Waning Gibbous
Jan 4
Last Quarter
Jan 11
New
Jan 18
First Quarter
Jan 26
Full

Hourly Weather History & Observations

Time (EST) Temp. Windchill Dew Point Humidity Pressure Visibility Wind Dir Wind Speed Gust Speed Precip Events Conditions
12:55 AM 39.0 °F 29.3 °F 27.5 °F 63% 30.26 in 10.0 mi NW 19.6 mph 25.3 mph N/A   Scattered Clouds
1:55 AM 36.9 °F 30.1 °F 26.6 °F 66% 30.27 in 10.0 mi NNW 9.2 mph - N/A   Clear
2:55 AM 35.8 °F 29.4 °F 27.1 °F 71% 30.29 in 10.0 mi NW 8.1 mph - N/A   Clear
3:55 AM 34.0 °F 26.6 °F 27.1 °F 76% 30.30 in 10.0 mi NW 9.2 mph - N/A   Clear
4:55 AM 33.6 °F 25.0 °F 27.0 °F 77% 30.30 in 10.0 mi NW 11.5 mph - N/A   Clear
5:55 AM 33.1 °F 26.1 °F 26.4 °F 77% 30.32 in 10.0 mi NNW 8.1 mph - N/A   Clear
6:55 AM 32.4 °F 24.0 °F 26.2 °F 78% 30.34 in 10.0 mi NNW 10.4 mph - N/A   Clear
7:55 AM 32.5 °F 24.8 °F 26.4 °F 78% 30.36 in 10.0 mi NNW 9.2 mph - N/A   Clear
8:55 AM 36.0 °F 27.5 °F 27.3 °F 71% 30.38 in 10.0 mi NNW 12.7 mph - N/A   Clear
9:55 AM 39.4 °F 31.4 °F 27.5 °F 62% 30.42 in 10.0 mi North 13.8 mph - N/A   Clear
10:55 AM 43.3 °F 38.6 °F 27.9 °F 54% 30.43 in 10.0 mi NNW 8.1 mph - N/A   Clear
11:55 AM 45.7 °F 42.7 °F 28.0 °F 50% 30.42 in 10.0 mi Variable 5.8 mph - N/A   Clear
12:55 PM 47.8 °F - 28.6 °F 47% 30.40 in 10.0 mi NNE 9.2 mph - N/A   Clear
1:55 PM 50.7 °F - 26.8 °F 40% 30.38 in 10.0 mi North 9.2 mph - N/A   Clear
2:55 PM 51.4 °F - 27.1 °F 39% 30.38 in 10.0 mi North 4.6 mph - N/A   Clear
3:55 PM 51.8 °F - 27.5 °F 39% 30.37 in 10.0 mi NNE 6.9 mph - N/A   Clear
4:55 PM 50.5 °F - 28.4 °F 42% 30.37 in 10.0 mi NNE 4.6 mph - N/A   Clear
5:55 PM 45.9 °F 43.6 °F 31.1 °F 56% 30.38 in 10.0 mi North 4.6 mph - N/A   Clear
6:55 PM 41.7 °F 38.0 °F 31.5 °F 67% 30.38 in 10.0 mi NE 5.8 mph - N/A   Clear
7:55 PM 38.3 °F - 31.1 °F 75% 30.40 in 10.0 mi Calm Calm - N/A   Clear
8:55 PM 35.1 °F - 31.5 °F 87% 30.41 in 10.0 mi Calm Calm - N/A   Clear
9:55 PM 34.2 °F - 31.1 °F 89% 30.41 in 10.0 mi Calm Calm - N/A   Clear
10:55 PM 33.3 °F - 30.6 °F 90% 30.40 in 10.0 mi Calm Calm - N/A   Clear
11:55 PM 32.0 °F - 29.5 °F 90% 30.41 in 10.0 mi Calm Calm - N/A   Clear